Humidity-temperature Sensor

Selected Measurement Type: Air Temperature

 
Air Temperature [°C]     6 entries per hour
Showing data from 12/11/2018 (02:00:00 Z) to 12/10/2018 (00:01:00 Z)
Previous Next [ Day | 3-Days | 7-Days ]
First Last
Prev [ Day | 3-Days | 7-Days ] Next
First Last

Start Time:     :
End Time:     :     
Time (in GMT) :00 :50 :40 :30 :20 :10
Previous Next [ Day | 3-Days | 7-Days ]
First Last
Prev [ Day | 3-Days | 7-Days ] Next
First Last


123 => good data
MM => data is determined as missing
-- => data not received/configured
Back to Top Back to Top
12/11/2018 02:00 to 1:10 22.73 22.60 22.50 22.77 22.66 22.75
12/11/2018 01:00 to 0:10 22.77 22.54 22.60 22.54 22.81 22.74
12/11/2018 00:00 to 23:10 22.88 23.15 23.10 23.06 23.22 23.16
12/10/2018 23:00 to 22:10 23.02 23.22 23.04 23.25 23.72 23.33
12/10/2018 22:00 to 21:10 23.43 23.18 23.24 23.05 22.97 23.18
12/10/2018 21:00 to 20:10 23.00 23.10 23.08 23.27 23.21 23.45
12/10/2018 20:00 to 19:10 23.28 23.15 23.06 23.39 23.31 23.23
12/10/2018 19:00 to 18:10 23.37 23.43 23.35 23.17 23.15 23.42
12/10/2018 18:00 to 17:10 23.34 23.31 23.27 23.37 23.57 23.53
12/10/2018 17:00 to 16:10 23.56 23.53 23.59 23.69 23.52 23.57
12/10/2018 16:00 to 15:10 23.56 23.50 23.54 23.46 23.46 23.67
12/10/2018 15:00 to 14:10 23.75 23.45 23.54 23.43 23.24 23.38
12/10/2018 14:00 to 13:10 23.47 23.32 23.24 23.59 23.75 23.41
12/10/2018 13:00 to 12:10 23.53 23.32 23.12 23.10 23.41 23.07
12/10/2018 12:00 to 11:10 22.94 22.91 23.06 22.97 23.06 22.76
12/10/2018 11:00 to 10:10 22.71 22.75 22.90 22.75 22.70 22.51
12/10/2018 10:00 to 9:10 22.52 22.81 22.51 22.83 22.84 22.76
12/10/2018 09:00 to 8:10 22.57 22.82 22.73 23.00 22.65 22.62
12/10/2018 08:00 to 7:10 22.75 22.54 22.60 22.64 22.48 22.56
12/10/2018 07:00 to 6:10 22.51 22.61 22.64 22.56 22.64 22.58
12/10/2018 06:00 to 5:10 22.73 22.65 22.66 22.68 22.58 22.61
12/10/2018 05:00 to 4:10 22.58 22.60 22.68 22.63 22.70 22.85
12/10/2018 04:00 to 3:10 22.63 22.69 22.75 22.77 22.71 22.70
12/10/2018 03:00 to 2:10 22.78 22.63 22.66 22.64 22.80 22.69
12/10/2018 02:00 to 1:10 22.62 22.73 22.58 22.79 22.54 22.67
12/10/2018 01:00 to 0:10 22.75 22.62 22.90 22.64 22.68 22.82